�N����,����,�~����,�C��,���x,�C��,����,���ϕ���,�ő�u�ԕ���,�ő厞����,���˗�,�I�_���x,�n�����x,�ő啗���N��,DTYPE
"23/03/11","00:10",0.0,9.8,64.5,1018.7,310.3,4.0,6.7,325.3,0.00,3.5,11.5,"00:07:48",1
"23/03/11","00:20",0.0,9.9,61.8,1018.5,326.3,4.1,5.9,326.1,0.00,3.0,11.4,"00:11:52",1
"23/03/11","00:30",0.0,10.0,62.9,1018.5,329.5,4.7,7.3,326.1,0.00,3.3,11.6,"00:23:44",1
"23/03/11","00:40",0.0,9.9,63.9,1018.7,333.9,3.7,6.4,351.4,0.00,3.4,11.3,"00:36:00",1
"23/03/11","00:50",0.0,9.5,64.6,1018.5,338.3,3.1,4.9,340.4,0.00,3.2,11.5,"00:44:48",1
"23/03/11","01:00",0.0,9.4,64.6,1018.7,339.9,2.8,5.4,342.9,0.00,3.1,11.4,"00:56:16",1
"23/03/11","01:10",0.0,9.1,65.9,1018.7,338.1,2.2,3.9,340.5,0.00,3.1,11.3,"01:03:52",1
"23/03/11","01:20",0.0,9.1,68.7,1018.7,304.4,2.7,4.2,317.5,0.00,3.7,11.2,"01:14:24",1
"23/03/11","01:30",0.0,9.0,70.4,1018.7,313.6,3.0,4.1,318.4,0.00,3.9,11.5,"01:29:20",1
"23/03/11","01:40",0.0,9.1,70.3,1018.5,328.1,3.5,5.5,340.1,0.00,4.0,11.2,"01:37:52",1
"23/03/11","01:50",0.0,8.8,70.0,1019.0,329.1,3.0,4.7,333.7,0.00,3.7,11.2,"01:40:16",1
"23/03/11","02:00",0.0,8.5,70.5,1018.7,327.9,2.8,5.5,337.3,0.00,3.5,11.1,"01:56:08",1
"23/03/11","02:10",0.0,8.1,70.4,1018.5,328.1,3.2,4.3,334.7,0.00,3.1,11.1,"02:09:20",1
"23/03/11","02:20",0.0,8.0,68.9,1018.5,325.7,3.5,4.9,328.4,0.00,2.7,11.0,"02:10:08",1
"23/03/11","02:30",0.0,7.9,68.9,1018.7,327.6,3.4,5.0,329.0,0.00,2.6,11.0,"02:28:00",1
"23/03/11","02:40",0.0,7.8,69.2,1018.2,330.5,3.1,5.1,323.5,0.00,2.6,10.8,"02:30:40",1
"23/03/11","02:50",0.0,7.8,70.0,1018.2,327.0,3.7,5.5,326.1,0.00,2.7,11.0,"02:46:24",1
"23/03/11","03:00",0.0,7.6,70.4,1018.7,326.5,3.1,4.5,335.6,0.00,2.6,10.9,"02:53:04",1
"23/03/11","03:10",0.0,7.6,71.5,1018.0,328.3,3.0,4.0,319.4,0.00,2.8,10.9,"03:01:20",1
"23/03/11","03:20",0.0,7.8,72.4,1018.2,328.2,3.2,5.5,328.1,0.00,3.2,10.8,"03:18:24",1
"23/03/11","03:30",0.0,7.9,72.8,1018.5,328.7,3.6,6.0,330.0,0.00,3.4,10.7,"03:24:16",1
"23/03/11","03:40",0.0,7.8,73.2,1018.5,329.8,3.5,5.6,338.5,0.00,3.3,10.7,"03:39:20",1
"23/03/11","03:50",0.0,7.3,72.5,1018.5,329.1,3.0,5.0,335.2,0.00,2.7,10.9,"03:49:04",1
"23/03/11","04:00",0.0,7.2,71.9,1019.0,335.5,3.2,4.8,337.8,0.00,2.5,10.8,"03:53:20",1
"23/03/11","04:10",0.0,7.1,71.5,1018.7,331.4,2.6,4.0,328.2,0.00,2.3,10.7,"04:02:40",1
"23/03/11","04:20",0.0,6.7,71.6,1019.0,314.5,2.7,3.1,320.5,0.00,2.0,10.7,"04:10:48",1
"23/03/11","04:30",0.0,6.3,72.3,1019.0,300.3,1.8,2.5,310.3,0.00,1.7,10.3,"04:29:22",1
"23/03/11","04:40",0.0,6.6,73.8,1018.7,293.1,2.6,3.1,303.6,0.00,2.3,10.4,"04:33:16",1
"23/03/11","04:50",0.0,6.3,74.8,1019.0,300.9,2.7,4.0,322.4,0.00,2.2,10.6,"04:48:36",1
"23/03/11","05:00",0.0,6.2,75.3,1018.5,304.9,2.8,4.4,323.9,0.00,2.2,10.5,"04:55:12",1
"23/03/11","05:10",0.0,6.1,75.8,1019.0,286.6,2.3,2.9,303.6,0.00,2.2,10.2,"05:03:06",1
"23/03/11","05:20",0.0,5.8,76.3,1019.0,290.8,2.2,3.2,305.8,0.00,2.0,10.3,"05:17:04",1
"23/03/11","05:30",0.0,5.7,76.2,1019.0,292.8,2.5,3.1,307.5,0.00,1.9,10.4,"05:26:40",1
"23/03/11","05:40",0.0,5.9,75.0,1019.0,314.7,2.8,3.7,294.7,0.00,1.9,10.2,"05:31:16",1
"23/03/11","05:50",0.0,5.9,73.4,1019.0,328.4,2.7,4.7,321.8,0.00,1.6,10.2,"05:49:38",1
"23/03/11","06:00",0.0,6.3,71.0,1019.2,328.1,4.2,5.9,325.6,0.00,1.5,10.2,"05:59:46",1
"23/03/11","06:10",0.0,6.4,68.7,1019.0,306.1,3.5,5.8,330.2,0.00,1.1,10.2,"06:01:48",1
"23/03/11","06:20",0.0,6.1,68.5,1019.0,314.4,2.6,3.7,330.2,0.00,0.8,10.0,"06:19:24",1
"23/03/11","06:30",0.0,5.9,68.2,1019.4,322.0,2.2,3.6,306.6,0.00,0.5,10.0,"06:21:24",1
"23/03/11","06:40",0.0,5.6,68.1,1019.4,301.9,1.7,3.7,325.9,0.00,0.2,10.1,"06:31:12",1
"23/03/11","06:50",0.0,5.1,69.8,1019.4,320.3,1.2,2.1,328.7,0.00,0.1,10.1,"06:44:44",1
"23/03/11","07:00",0.0,4.8,71.0,1019.7,282.4,1.2,1.6,315.6,0.00,0.0,10.0,"06:50:22",1
"23/03/11","07:10",0.0,5.6,71.9,1019.7,289.4,2.8,4.7,305.2,0.00,1.0,9.9,"07:05:02",1
"23/03/11","07:20",0.0,6.0,72.2,1019.9,293.1,2.5,3.5,325.3,0.00,1.4,10.0,"07:13:06",1
"23/03/11","07:30",0.0,5.9,73.0,1019.7,298.1,2.6,3.7,306.5,0.00,1.5,9.9,"07:22:32",1
"23/03/11","07:40",0.0,6.5,73.3,1019.9,295.8,3.0,4.4,316.4,0.01,2.1,9.9,"07:37:04",1
"23/03/11","07:50",0.0,7.1,72.0,1019.9,297.6,3.0,4.1,293.8,0.02,2.4,9.7,"07:40:48",1
"23/03/11","08:00",0.0,7.7,70.2,1020.1,291.4,2.2,3.2,292.1,0.04,2.7,9.9,"07:50:02",1
"23/03/11","08:10",0.0,8.5,68.1,1020.6,295.4,1.8,4.8,323.5,0.05,3.0,9.9,"08:00:16",1
"23/03/11","08:20",0.0,9.1,63.9,1020.6,326.5,1.3,2.1,325.5,0.07,2.7,9.7,"08:17:56",1
"23/03/11","08:30",0.0,9.8,62.0,1021.1,305.3,0.8,1.7,314.8,0.10,2.9,9.6,"08:21:20",1
"23/03/11","08:40",0.0,10.6,60.8,1021.3,320.2,0.8,1.3,324.1,0.12,3.4,9.7,"08:39:28",1
"23/03/11","08:50",0.0,11.5,58.8,1021.3,302.2,0.7,1.4,325.0,0.15,3.8,9.7,"08:42:42",1
"23/03/11","09:00",0.0,11.7,57.2,1021.5,181.9,0.3,0.8,193.8,0.17,3.6,9.7,"08:58:04",1
"23/03/11","09:10",0.0,12.1,57.5,1021.3,149.0,0.5,1.3,121.1,0.20,4.0,9.7,"09:09:26",1
"23/03/11","09:20",0.0,12.8,59.9,1021.3,183.8,0.8,2.6,249.1,0.23,5.3,9.8,"09:19:28",1
"23/03/11","09:30",0.0,12.7,60.5,1021.1,230.9,1.3,2.9,234.3,0.25,5.3,9.7,"09:24:00",1
"23/03/11","09:40",0.0,13.4,59.6,1021.5,233.9,0.7,1.9,213.0,0.28,5.7,9.8,"09:31:36",1
"23/03/11","09:50",0.0,14.0,57.1,1021.3,194.6,0.8,2.0,194.9,0.31,5.7,10.1,"09:40:24",1
"23/03/11","10:00",0.0,14.6,53.9,1021.3,188.4,0.6,1.4,132.3,0.33,5.4,10.0,"09:52:24",1
"23/03/11","10:10",0.0,15.2,49.9,1021.1,235.7,0.7,1.8,144.0,0.36,4.9,10.2,"10:09:12",1
"23/03/11","10:20",0.0,15.7,47.6,1020.6,238.6,0.7,1.6,204.9,0.38,4.7,10.0,"10:17:28",1
"23/03/11","10:30",0.0,16.4,44.3,1021.1,230.2,0.5,1.0,208.0,0.40,4.3,10.2,"10:24:08",1
"23/03/11","10:40",0.0,17.2,40.4,1020.8,336.8,0.6,1.4,338.0,0.42,3.7,10.1,"10:33:52",1
"23/03/11","10:50",0.0,17.4,40.8,1020.4,250.2,0.8,1.6,265.6,0.44,4.0,10.3,"10:46:00",1
"23/03/11","11:00",0.0,17.5,40.1,1020.1,209.3,1.1,2.4,112.9,0.46,3.8,10.4,"10:59:44",1
"23/03/11","11:10",0.0,17.6,40.5,1019.9,138.5,1.3,2.7,127.7,0.47,4.1,10.5,"11:07:04",1
"23/03/11","11:20",0.0,18.1,39.4,1020.1,202.4,1.1,2.8,150.2,0.49,4.1,10.5,"11:13:04",1
"23/03/11","11:30",0.0,18.9,39.3,1019.9,195.6,1.0,3.2,154.0,0.50,4.8,10.6,"11:21:44",1
"23/03/11","11:40",0.0,19.0,37.1,1019.7,153.7,1.1,2.6,117.4,0.51,4.1,10.7,"11:32:24",1
"23/03/11","11:50",0.0,19.4,36.2,1019.4,221.1,1.1,2.5,238.0,0.52,4.1,10.9,"11:44:48",1
"23/03/11","12:00",0.0,19.6,33.9,1019.0,189.4,1.2,3.1,118.5,0.53,3.3,11.0,"11:58:32",1
"23/03/11","12:10",0.0,19.9,36.8,1019.0,198.9,1.5,2.7,230.0,0.54,4.8,11.1,"12:05:52",1
"23/03/11","12:20",0.0,20.5,34.2,1018.7,201.6,1.1,2.5,168.4,0.54,4.2,11.2,"12:18:24",1
"23/03/11","12:30",0.0,21.1,33.4,1018.7,251.3,0.8,2.1,121.5,0.55,4.4,11.2,"12:29:04",1
"23/03/11","12:40",0.0,21.4,34.7,1018.7,192.1,1.2,2.7,113.0,0.55,5.2,11.4,"12:31:52",1
"23/03/11","12:50",0.0,21.5,31.2,1018.2,225.6,1.3,4.1,124.4,0.55,3.8,11.6,"12:48:24",1
"23/03/11","13:00",0.0,21.6,31.6,1018.2,197.5,1.5,3.7,159.8,0.55,4.1,11.5,"12:54:08",1
"23/03/11","13:10",0.0,22.0,30.8,1018.0,145.9,1.5,3.3,143.1,0.54,4.1,12.0,"13:04:32",1
"23/03/11","13:20",0.0,22.4,30.4,1017.5,198.1,1.5,2.9,128.1,0.54,4.2,11.7,"13:15:28",1
"23/03/11","13:30",0.0,22.6,25.2,1017.3,150.9,1.6,3.6,123.4,0.54,1.7,12.1,"13:21:04",1
"23/03/11","13:40",0.0,22.9,23.1,1017.1,149.8,1.8,3.4,110.4,0.53,0.8,12.4,"13:38:24",1
"23/03/11","13:50",0.0,23.2,22.9,1016.8,143.3,1.8,3.5,120.3,0.52,0.9,12.2,"13:40:08",1
"23/03/11","14:00",0.0,23.2,22.5,1016.6,193.1,2.0,3.4,202.2,0.51,0.7,12.4,"13:58:40",1
"23/03/11","14:10",0.0,23.6,21.7,1016.6,178.7,1.5,2.9,199.2,0.50,0.5,12.4,"14:03:36",1
"23/03/11","14:20",0.0,23.9,21.5,1016.6,135.1,1.5,3.3,143.8,0.49,0.6,12.5,"14:12:08",1
"23/03/11","14:30",0.0,24.0,21.4,1016.6,136.2,1.7,4.9,117.6,0.47,0.6,12.9,"14:20:32",1
"23/03/11","14:40",0.0,23.8,20.2,1016.6,148.1,2.2,4.2,152.1,0.46,-0.3,12.9,"14:31:12",1
"23/03/11","14:50",0.0,24.1,20.3,1016.4,142.3,1.8,3.3,118.0,0.44,0.0,13.0,"14:48:48",1
"23/03/11","15:00",0.0,24.2,21.0,1016.4,142.4,2.2,4.1,158.1,0.42,0.6,13.0,"14:54:56",1
"23/03/11","15:10",0.0,24.0,21.6,1016.4,87.8,2.1,4.2,101.0,0.40,0.8,13.1,"15:01:36",1
"23/03/11","15:20",0.0,24.3,20.9,1016.4,135.3,2.2,4.8,123.5,0.38,0.6,13.2,"15:19:36",1
"23/03/11","15:30",0.0,24.7,19.9,1016.8,180.1,1.5,3.7,225.5,0.36,0.2,13.5,"15:20:48",1
"23/03/11","15:40",0.0,24.6,19.3,1016.1,128.7,2.0,3.4,133.9,0.34,-0.3,13.4,"15:35:04",1
"23/03/11","15:50",0.0,24.7,20.6,1016.4,126.0,1.7,4.3,110.7,0.31,0.7,13.5,"15:49:12",1
"23/03/11","16:00",0.0,24.3,21.1,1016.1,117.9,2.1,3.9,156.6,0.29,0.7,13.5,"15:51:28",1
"23/03/11","16:10",0.0,24.5,19.0,1016.6,158.7,2.0,3.7,98.6,0.26,-0.6,13.6,"16:02:08",1
"23/03/11","16:20",0.0,24.6,17.9,1016.6,158.2,1.5,3.3,164.5,0.24,-1.3,13.7,"16:16:32",1
"23/03/11","16:30",0.0,24.5,18.8,1016.6,99.8,1.7,4.2,105.0,0.21,-0.7,13.7,"16:24:16",1
"23/03/11","16:40",0.0,24.1,19.1,1016.6,117.6,2.1,4.5,126.8,0.19,-0.8,13.7,"16:39:36",1
"23/03/11","16:50",0.0,23.8,18.4,1016.6,100.6,1.8,4.1,131.8,0.16,-1.6,13.7,"16:40:08",1
"23/03/11","17:00",0.0,23.8,19.0,1016.6,94.3,1.5,3.3,111.3,0.14,-1.1,13.8,"16:54:32",1
"23/03/11","17:10",0.0,23.3,18.9,1016.4,110.1,2.5,3.9,117.2,0.11,-1.6,13.9,"17:02:00",1
"23/03/11","17:20",0.0,23.2,19.4,1016.8,121.0,2.2,4.3,108.8,0.09,-1.4,13.8,"17:11:52",1
"23/03/11","17:30",0.0,22.9,17.8,1017.1,114.0,2.2,3.9,111.0,0.07,-2.8,13.7,"17:23:20",1
"23/03/11","17:40",0.0,22.6,18.0,1017.1,106.2,2.1,4.2,103.7,0.05,-2.9,13.7,"17:39:12",1
"23/03/11","17:50",0.0,22.4,18.6,1017.3,116.9,2.3,4.4,122.7,0.03,-2.6,14.0,"17:43:20",1
"23/03/11","18:00",0.0,22.2,19.4,1017.1,73.9,0.8,2.6,100.7,0.02,-2.2,13.8,"17:51:04",1
"23/03/11","18:10",0.0,21.9,20.4,1017.1,33.7,0.7,1.6,49.3,0.01,-1.7,13.8,"18:00:08",1
"23/03/11","18:20",0.0,21.3,21.3,1017.8,2.1,0.5,1.2,53.1,0.00,-1.7,13.9,"18:10:56",1
"23/03/11","18:30",0.0,20.6,26.3,1018.0,336.3,1.1,1.8,326.9,0.00,0.6,13.9,"18:29:28",1
"23/03/11","18:40",0.0,18.9,31.9,1017.8,309.8,1.6,2.5,318.0,0.00,1.9,13.7,"18:33:36",1
"23/03/11","18:50",0.0,18.0,33.9,1018.5,313.4,1.8,2.6,319.1,0.00,1.9,13.7,"18:45:04",1
"23/03/11","19:00",0.0,17.4,35.9,1018.0,302.6,1.6,2.6,302.5,0.00,2.2,13.5,"18:52:24",1
"23/03/11","19:10",0.0,17.0,37.1,1018.2,319.0,2.2,3.1,311.1,0.00,2.3,13.5,"19:03:22",1
"23/03/11","19:20",0.0,16.5,39.8,1018.2,321.5,1.6,2.4,341.2,0.00,2.8,13.6,"19:10:16",1
"23/03/11","19:30",0.0,16.0,41.3,1018.5,318.2,1.8,2.5,313.2,0.00,2.9,13.5,"19:23:28",1
"23/03/11","19:40",0.0,15.7,41.8,1018.2,297.7,1.7,2.2,308.0,0.00,2.8,13.2,"19:38:40",1
"23/03/11","19:50",0.0,15.4,43.1,1018.5,301.7,1.7,2.6,317.4,0.00,3.0,13.4,"19:49:20",1
"23/03/11","20:00",0.0,15.1,44.5,1018.7,308.7,1.6,2.6,320.3,0.00,3.1,13.4,"19:50:40",1
"23/03/11","20:10",0.0,14.9,45.2,1019.0,294.2,1.7,2.6,299.6,0.00,3.2,13.3,"20:07:12",1
"23/03/11","20:20",0.0,14.9,45.3,1019.2,295.1,2.0,3.1,286.0,0.00,3.2,13.3,"20:16:32",1
"23/03/11","20:30",0.0,14.7,44.9,1019.2,280.7,1.7,2.1,280.1,0.00,2.9,13.2,"20:23:04",1
"23/03/11","20:40",0.0,14.6,45.4,1019.2,293.8,1.8,2.4,298.8,0.00,3.0,13.2,"20:34:40",1
"23/03/11","20:50",0.0,14.0,49.0,1019.4,323.2,1.3,2.6,309.9,0.00,3.5,13.1,"20:41:20",1
"23/03/11","21:00",0.0,12.9,54.6,1019.2,319.5,1.3,1.9,311.5,0.00,4.0,13.0,"20:55:52",1
"23/03/11","21:10",0.0,12.1,57.0,1019.4,329.0,2.0,2.1,331.4,0.00,3.9,13.0,"21:05:20",1
"23/03/11","21:20",0.0,11.7,57.4,1019.7,312.0,1.9,1.9,323.8,0.00,3.6,13.0,"21:13:28",1
"23/03/11","21:30",0.0,12.2,55.2,1019.4,286.9,2.0,2.4,302.3,0.00,3.5,12.9,"21:26:46",1
"23/03/11","21:40",0.0,12.6,52.8,1019.9,287.1,2.1,2.4,304.1,0.00,3.3,12.8,"21:31:08",1
"23/03/11","21:50",0.0,12.7,53.7,1019.9,316.1,2.6,3.4,323.7,0.00,3.6,12.8,"21:49:58",1
"23/03/11","22:00",0.0,11.0,59.6,1020.4,328.3,2.3,3.1,319.3,0.00,3.5,12.8,"21:50:24",1
"23/03/11","22:10",0.0,10.7,60.5,1020.4,303.6,1.6,1.9,321.2,0.00,3.4,12.6,"22:05:44",1
"23/03/11","22:20",0.0,11.2,57.9,1020.4,284.7,2.0,2.0,274.0,0.00,3.3,12.6,"22:14:04",1
"23/03/11","22:30",0.0,11.3,58.2,1020.4,321.1,1.8,2.4,269.5,0.00,3.4,12.6,"22:27:44",1
"23/03/11","22:40",0.0,10.6,60.3,1020.4,315.2,2.1,2.5,326.5,0.00,3.3,12.5,"22:35:32",1
"23/03/11","22:50",0.0,10.8,59.9,1020.6,317.5,2.1,2.9,307.2,0.00,3.4,12.4,"22:40:36",1
"23/03/11","23:00",0.0,10.6,61.3,1020.4,330.2,2.0,2.5,332.6,0.00,3.5,12.2,"22:54:36",1
"23/03/11","23:10",0.0,10.3,62.3,1020.4,318.7,2.0,2.4,326.0,0.00,3.5,12.2,"23:09:00",1
"23/03/11","23:20",0.0,10.3,62.9,1020.4,308.0,1.8,2.6,324.6,0.00,3.6,12.3,"23:11:14",1
"23/03/11","23:30",0.0,10.5,62.8,1020.1,312.9,2.1,3.2,318.9,0.00,3.8,12.3,"23:28:10",1
"23/03/11","23:40",0.0,10.6,62.7,1020.4,309.3,2.0,2.6,319.5,0.00,3.8,12.1,"23:32:50",1
"23/03/11","23:50",0.0,10.6,62.3,1020.6,307.8,2.2,2.7,320.3,0.00,3.7,12.2,"23:40:32",1
"23/03/11","24:00",0.0,10.6,63.0,1020.6,321.5,2.2,2.8,316.4,0.00,3.9,11.9,"23:51:56",1
